Time,TemperatureF,DewpointF,PressureIn,WindDirection,WindDirectionDegrees,WindSpeedMPH,WindSpeedGustMPH,Humidity,HourlyPrecipIn,Conditions,Clouds,dailyrainin,SoftwareType,DateUTC
2013-02-03 00:01:00,44.0,38.0,30.21,South,175,0.0,0.0,80,0.01,,,0.01,,2013-02-03 08:01:00,
2013-02-03 00:11:00,44.0,38.0,30.21,South,175,0.0,0.0,80,0.01,,,0.01,,2013-02-03 08:11:00,
2013-02-03 00:22:00,44.0,39.0,30.21,South,175,0.0,0.0,81,0.01,,,0.01,,2013-02-03 08:22:00,
2013-02-03 00:32:00,44.0,39.0,30.21,South,175,0.0,0.0,81,0.01,,,0.01,,2013-02-03 08:32:00,
2013-02-03 00:41:00,44.0,39.0,30.21,South,175,0.0,0.0,81,0.01,,,0.01,,2013-02-03 08:41:00,
2013-02-03 00:51:00,44.0,39.0,30.19,South,175,0.0,1.0,81,0.01,,,0.01,,2013-02-03 08:51:00,
2013-02-03 01:02:00,44.0,39.0,30.19,South,175,0.0,0.0,83,0.00,,,0.01,,2013-02-03 09:02:00,
2013-02-03 01:11:00,44.0,39.0,30.19,South,175,0.0,0.0,83,0.00,,,0.01,,2013-02-03 09:11:00,
2013-02-03 01:21:00,44.0,39.0,30.18,South,175,0.0,0.0,84,0.00,,,0.01,,2013-02-03 09:21:00,
2013-02-03 01:31:00,44.0,39.0,30.17,South,175,0.0,0.0,83,0.00,,,0.01,,2013-02-03 09:31:00,
2013-02-03 01:41:00,44.0,39.0,30.17,South,175,0.0,0.0,83,0.00,,,0.01,,2013-02-03 09:41:00,
2013-02-03 01:51:00,44.0,39.0,30.17,South,175,0.0,0.0,84,0.00,,,0.01,,2013-02-03 09:51:00,
2013-02-03 02:01:00,44.0,39.0,30.16,South,175,0.0,0.0,84,0.00,,,0.01,,2013-02-03 10:01:00,
2013-02-03 02:11:00,44.0,39.0,30.16,South,175,0.0,0.0,84,0.00,,,0.01,,2013-02-03 10:11:00,
2013-02-03 02:21:00,44.0,40.0,30.16,South,175,0.0,0.0,85,0.01,,,0.02,,2013-02-03 10:21:00,
2013-02-03 02:31:00,44.0,40.0,30.16,South,175,0.0,0.0,85,0.01,,,0.02,,2013-02-03 10:31:00,
2013-02-03 02:41:00,44.0,40.0,30.16,South,175,0.0,0.0,85,0.01,,,0.02,,2013-02-03 10:41:00,
2013-02-03 02:52:00,44.0,40.0,30.15,South,175,0.0,0.0,86,0.03,,,0.04,,2013-02-03 10:52:00,
2013-02-03 03:02:00,43.0,39.0,30.15,South,175,0.0,0.0,86,0.03,,,0.05,,2013-02-03 11:02:00,
2013-02-03 03:11:00,43.0,39.0,30.15,South,175,0.0,0.0,86,0.03,,,0.05,,2013-02-03 11:11:00,
2013-02-03 03:22:00,43.0,39.0,30.14,South,175,0.0,0.0,87,0.03,,,0.05,,2013-02-03 11:22:00,
2013-02-03 03:31:00,43.0,39.0,30.14,South,175,0.0,0.0,87,0.04,,,0.06,,2013-02-03 11:31:00,
2013-02-03 03:41:00,43.0,39.0,30.14,South,175,0.0,0.0,87,0.04,,,0.06,,2013-02-03 11:41:00,
2013-02-03 03:52:00,43.0,39.0,30.13,South,175,0.0,0.0,87,0.02,,,0.06,,2013-02-03 11:52:00,
2013-02-03 04:02:00,43.0,39.0,30.12,South,175,0.0,0.0,87,0.01,,,0.06,,2013-02-03 12:02:00,
2013-02-03 04:11:00,43.0,39.0,30.12,South,175,0.0,0.0,87,0.01,,,0.06,,2013-02-03 12:11:00,
2013-02-03 04:21:00,43.0,40.0,30.12,South,175,0.0,0.0,88,0.01,,,0.06,,2013-02-03 12:21:00,
2013-02-03 04:32:00,43.0,40.0,30.12,South,175,0.0,1.0,88,0.01,,,0.07,,2013-02-03 12:32:00,
2013-02-03 04:42:00,43.0,40.0,30.12,South,175,0.0,1.0,88,0.01,,,0.07,,2013-02-03 12:42:00,
2013-02-03 04:52:00,43.0,40.0,30.13,South,175,0.0,0.0,88,0.01,,,0.07,,2013-02-03 12:52:00,
2013-02-03 05:03:00,43.0,40.0,30.13,WNW,286,0.0,2.0,88,0.02,,,0.08,,2013-02-03 13:03:00,
2013-02-03 05:11:00,43.0,40.0,30.13,NW,313,2.0,5.0,88,0.03,,,0.09,,2013-02-03 13:11:00,
2013-02-03 05:21:00,43.0,40.0,30.13,NW,313,2.0,5.0,88,0.03,,,0.09,,2013-02-03 13:21:00,
2013-02-03 05:32:00,42.0,39.0,30.12,NW,307,0.0,9.0,88,0.02,,,0.09,,2013-02-03 13:32:00,
2013-02-03 05:41:00,42.0,39.0,30.12,NW,307,0.0,9.0,88,0.02,,,0.09,,2013-02-03 13:41:00,
2013-02-03 05:52:00,42.0,39.0,30.11,NW,307,0.0,4.0,89,0.02,,,0.09,,2013-02-03 13:52:00,
2013-02-03 06:02:00,41.0,38.0,30.11,NW,307,0.0,3.0,89,0.01,,,0.09,,2013-02-03 14:02:00,
2013-02-03 06:11:00,41.0,38.0,30.11,NW,307,0.0,3.0,89,0.01,,,0.09,,2013-02-03 14:11:00,
2013-02-03 06:21:00,41.0,38.0,30.11,WNW,296,0.0,4.0,89,0.00,,,0.09,,2013-02-03 14:21:00,
2013-02-03 06:32:00,41.0,38.0,30.11,WNW,296,0.0,0.0,89,0.00,,,0.09,,2013-02-03 14:32:00,
2013-02-03 06:42:00,41.0,38.0,30.11,WNW,296,0.0,0.0,89,0.00,,,0.09,,2013-02-03 14:42:00,
2013-02-03 06:52:00,41.0,38.0,30.11,WNW,296,0.0,0.0,89,0.00,,,0.09,,2013-02-03 14:52:00,
2013-02-03 07:02:00,41.0,38.0,30.11,WNW,296,0.0,0.0,89,0.00,,,0.09,,2013-02-03 15:02:00,
2013-02-03 07:11:00,41.0,38.0,30.11,WNW,296,0.0,0.0,89,0.00,,,0.09,,2013-02-03 15:11:00,
2013-02-03 07:21:00,41.0,38.0,30.10,WNW,296,0.0,0.0,89,0.00,,,0.09,,2013-02-03 15:21:00,
2013-02-03 07:32:00,41.0,38.0,30.11,WNW,296,0.0,0.0,89,0.00,,,0.09,,2013-02-03 15:32:00,
2013-02-03 07:41:00,41.0,38.0,30.11,WNW,296,0.0,0.0,89,0.00,,,0.09,,2013-02-03 15:41:00,
2013-02-03 07:51:00,42.0,39.0,30.11,WNW,296,0.0,0.0,89,0.00,,,0.09,,2013-02-03 15:51:00,
2013-02-03 08:02:00,42.0,39.0,30.10,WNW,296,0.0,0.0,89,0.00,,,0.09,,2013-02-03 16:02:00,
2013-02-03 08:11:00,42.0,39.0,30.10,WNW,296,0.0,0.0,89,0.00,,,0.09,,2013-02-03 16:11:00,
2013-02-03 08:21:00,42.0,39.0,30.10,WNW,296,0.0,0.0,90,0.00,,,0.09,,2013-02-03 16:21:00,
2013-02-03 08:32:00,44.0,41.0,30.10,WNW,296,0.0,0.0,90,0.00,,,0.09,,2013-02-03 16:32:00,
2013-02-03 08:41:00,44.0,41.0,30.10,WNW,296,0.0,0.0,90,0.00,,,0.09,,2013-02-03 16:41:00,
2013-02-03 08:52:00,45.0,42.0,30.10,WNW,296,0.0,0.0,90,0.00,,,0.09,,2013-02-03 16:52:00,
2013-02-03 09:02:00,46.0,43.0,30.09,WNW,296,0.0,0.0,89,0.00,,,0.09,,2013-02-03 17:02:00,
2013-02-03 09:11:00,46.0,43.0,30.09,WNW,296,0.0,0.0,89,0.00,,,0.09,,2013-02-03 17:11:00,
2013-02-03 09:21:00,47.0,44.0,30.09,WNW,296,0.0,0.0,88,0.00,,,0.09,,2013-02-03 17:21:00,
2013-02-03 09:31:00,49.0,44.0,30.10,WNW,296,0.0,0.0,84,0.00,,,0.09,,2013-02-03 17:31:00,
2013-02-03 09:41:00,49.0,44.0,30.10,WNW,296,0.0,0.0,84,0.00,,,0.09,,2013-02-03 17:41:00,
2013-02-03 09:52:00,49.0,41.0,30.09,WNW,296,0.0,3.0,75,0.00,,,0.09,,2013-02-03 17:52:00,
2013-02-03 10:02:00,49.0,41.0,30.09,WNW,296,0.0,3.0,75,0.00,,,0.09,,2013-02-03 18:02:00,
2013-02-03 10:11:00,49.0,41.0,30.09,WNW,296,0.0,3.0,75,0.00,,,0.09,,2013-02-03 18:11:00,
2013-02-03 10:22:00,51.0,41.0,30.09,NE,55,0.0,1.0,69,0.00,,,0.09,,2013-02-03 18:22:00,
2013-02-03 10:32:00,52.0,41.0,30.09,ESE,113,0.0,0.0,65,0.00,,,0.09,,2013-02-03 18:32:00,
2013-02-03 10:41:00,52.0,41.0,30.09,ESE,113,0.0,0.0,65,0.00,,,0.09,,2013-02-03 18:41:00,
2013-02-03 10:51:00,52.0,41.0,30.09,ESE,105,0.0,0.0,67,0.00,,,0.09,,2013-02-03 18:51:00,
2013-02-03 11:02:00,52.0,41.0,30.09,ESE,105,0.0,0.0,67,0.00,,,0.09,,2013-02-03 19:02:00,
2013-02-03 11:11:00,52.0,41.0,30.09,ESE,105,0.0,0.0,67,0.00,,,0.09,,2013-02-03 19:11:00,
2013-02-03 11:21:00,52.0,41.0,30.08,ESE,105,0.0,0.0,66,0.00,,,0.09,,2013-02-03 19:21:00,
2013-02-03 11:32:00,52.0,41.0,30.07,SSE,162,1.0,7.0,67,0.00,,,0.09,,2013-02-03 19:32:00,
2013-02-03 11:41:00,52.0,41.0,30.07,SSE,162,1.0,7.0,67,0.00,,,0.09,,2013-02-03 19:41:00,
2013-02-03 11:51:00,52.0,41.0,30.07,South,176,2.0,6.0,66,0.00,,,0.09,,2013-02-03 19:51:00,
2013-02-03 12:01:00,52.0,41.0,30.06,SSE,166,0.0,7.0,66,0.00,,,0.09,,2013-02-03 20:01:00,
2013-02-03 12:11:00,52.0,41.0,30.06,SSE,166,0.0,7.0,66,0.00,,,0.09,,2013-02-03 20:11:00,
2013-02-03 12:21:00,53.0,42.0,30.05,SE,132,3.0,6.0,65,0.00,,,0.09,,2013-02-03 20:21:00,
2013-02-03 12:32:00,54.0,42.0,30.04,SSE,161,2.0,9.0,64,0.00,,,0.09,,2013-02-03 20:32:00,
2013-02-03 12:42:00,54.0,42.0,30.04,SSE,161,2.0,9.0,64,0.00,,,0.09,,2013-02-03 20:42:00,
2013-02-03 12:52:00,53.0,39.0,30.03,ESE,108,0.0,5.0,59,0.00,,,0.09,,2013-02-03 20:52:00,
2013-02-03 13:02:00,54.0,41.0,30.03,SSE,155,1.0,6.0,62,0.00,,,0.09,,2013-02-03 21:02:00,
2013-02-03 13:11:00,54.0,41.0,30.03,SSE,155,1.0,6.0,62,0.00,,,0.09,,2013-02-03 21:11:00,
2013-02-03 13:21:00,53.0,41.0,30.03,South,175,2.0,9.0,63,0.00,,,0.09,,2013-02-03 21:21:00,
2013-02-03 13:32:00,53.0,40.0,30.02,South,171,5.0,10.0,62,0.00,,,0.09,,2013-02-03 21:32:00,
2013-02-03 13:42:00,53.0,40.0,30.02,South,171,5.0,10.0,62,0.00,,,0.09,,2013-02-03 21:42:00,
2013-02-03 13:51:00,54.0,40.0,30.02,SW,225,2.0,11.0,60,0.00,,,0.09,,2013-02-03 21:51:00,
2013-02-03 14:01:00,53.0,39.0,30.02,West,261,1.0,6.0,59,0.00,,,0.09,,2013-02-03 22:01:00,
2013-02-03 14:11:00,53.0,39.0,30.02,West,261,1.0,6.0,59,0.00,,,0.09,,2013-02-03 22:11:00,
2013-02-03 14:21:00,54.0,38.0,30.02,WSW,244,3.0,9.0,55,0.00,,,0.09,,2013-02-03 22:21:00,
2013-02-03 14:31:00,54.0,39.0,30.02,SSE,155,1.0,6.0,57,0.00,,,0.09,,2013-02-03 22:31:00,
2013-02-03 14:41:00,54.0,39.0,30.02,SSE,155,1.0,6.0,57,0.00,,,0.09,,2013-02-03 22:41:00,
2013-02-03 14:51:00,54.0,39.0,30.02,West,260,0.0,7.0,56,0.00,,,0.09,,2013-02-03 22:51:00,
2013-02-03 15:01:00,54.0,39.0,30.02,West,275,0.0,6.0,56,0.00,,,0.09,,2013-02-03 23:01:00,
2013-02-03 15:11:00,54.0,39.0,30.02,West,275,0.0,6.0,56,0.00,,,0.09,,2013-02-03 23:11:00,
2013-02-03 15:21:00,54.0,39.0,30.03,NW,311,0.0,4.0,56,0.00,,,0.09,,2013-02-03 23:21:00,
2013-02-03 15:32:00,53.0,39.0,30.03,NW,314,0.0,8.0,58,0.00,,,0.09,,2013-02-03 23:32:00,
2013-02-03 15:41:00,53.0,39.0,30.03,NW,314,0.0,8.0,58,0.00,,,0.09,,2013-02-03 23:41:00,
2013-02-03 15:52:00,53.0,39.0,30.03,NW,315,0.0,5.0,58,0.00,,,0.09,,2013-02-03 23:52:00,
2013-02-03 16:01:00,53.0,39.0,30.04,WNW,297,1.0,6.0,58,0.00,,,0.09,,2013-02-04 00:01:00,
2013-02-03 16:11:00,53.0,39.0,30.04,WNW,297,1.0,6.0,58,0.00,,,0.09,,2013-02-04 00:11:00,
2013-02-03 16:21:00,52.0,39.0,30.04,WNW,297,0.0,4.0,60,0.00,,,0.09,,2013-02-04 00:21:00,
2013-02-03 16:31:00,52.0,39.0,30.04,NW,323,1.0,4.0,61,0.00,,,0.09,,2013-02-04 00:31:00,
2013-02-03 16:41:00,52.0,39.0,30.04,NW,323,1.0,4.0,61,0.00,,,0.09,,2013-02-04 00:41:00,
2013-02-03 16:51:00,51.0,39.0,30.04,NW,311,1.0,7.0,63,0.00,,,0.09,,2013-02-04 00:51:00,
2013-02-03 17:01:00,51.0,40.0,30.04,NW,315,0.0,0.0,65,0.00,,,0.09,,2013-02-04 01:01:00,
2013-02-03 17:11:00,51.0,40.0,30.04,NW,315,0.0,0.0,65,0.00,,,0.09,,2013-02-04 01:11:00,
2013-02-03 17:21:00,50.0,39.0,30.04,NNE,12,0.0,0.0,66,0.00,,,0.09,,2013-02-04 01:21:00,
2013-02-03 17:31:00,49.0,38.0,30.04,NNE,12,0.0,0.0,66,0.00,,,0.09,,2013-02-04 01:31:00,
2013-02-03 17:41:00,49.0,38.0,30.04,NNE,12,0.0,0.0,66,0.00,,,0.09,,2013-02-04 01:41:00,
2013-02-03 17:51:00,48.0,39.0,30.05,NNE,12,0.0,0.0,71,0.00,,,0.09,,2013-02-04 01:51:00,
2013-02-03 18:01:00,46.0,39.0,30.05,NNE,12,0.0,0.0,75,0.00,,,0.09,,2013-02-04 02:01:00,
2013-02-03 18:11:00,46.0,39.0,30.05,NNE,12,0.0,0.0,75,0.00,,,0.09,,2013-02-04 02:11:00,
2013-02-03 18:21:00,45.0,38.0,30.05,NNE,12,0.0,0.0,77,0.00,,,0.09,,2013-02-04 02:21:00,
2013-02-03 18:31:00,44.0,38.0,30.05,NNE,12,0.0,0.0,78,0.00,,,0.09,,2013-02-04 02:31:00,
2013-02-03 18:41:00,44.0,38.0,30.05,NNE,12,0.0,0.0,78,0.00,,,0.09,,2013-02-04 02:41:00,
2013-02-03 18:52:00,42.0,36.0,30.06,NNE,12,0.0,0.0,79,0.00,,,0.09,,2013-02-04 02:52:00,
2013-02-03 19:01:00,42.0,36.0,30.07,NNE,12,0.0,0.0,80,0.00,,,0.09,,2013-02-04 03:01:00,
2013-02-03 19:11:00,41.0,35.0,30.07,NNE,12,0.0,0.0,80,0.00,,,0.09,,2013-02-04 03:11:00,
2013-02-03 19:21:00,41.0,35.0,30.07,NNE,12,0.0,0.0,80,0.00,,,0.09,,2013-02-04 03:21:00,
2013-02-03 19:31:00,40.0,35.0,30.08,NNE,12,0.0,0.0,81,0.00,,,0.09,,2013-02-04 03:31:00,
2013-02-03 19:41:00,40.0,35.0,30.08,NNE,12,0.0,0.0,81,0.00,,,0.09,,2013-02-04 03:41:00,
2013-02-03 19:51:00,39.0,34.0,30.08,NNE,12,0.0,0.0,81,0.00,,,0.09,,2013-02-04 03:51:00,
2013-02-03 20:01:00,39.0,34.0,30.09,NNE,12,0.0,0.0,82,0.00,,,0.09,,2013-02-04 04:01:00,
2013-02-03 20:11:00,39.0,34.0,30.09,NNE,12,0.0,0.0,82,0.00,,,0.09,,2013-02-04 04:11:00,
2013-02-03 20:21:00,38.0,33.0,30.09,WNW,289,0.0,0.0,83,0.00,,,0.09,,2013-02-04 04:21:00,
2013-02-03 20:31:00,37.0,33.0,30.09,WNW,289,0.0,0.0,84,0.00,,,0.09,,2013-02-04 04:31:00,
2013-02-03 20:41:00,37.0,33.0,30.09,WNW,289,0.0,0.0,84,0.00,,,0.09,,2013-02-04 04:41:00,
2013-02-03 20:52:00,37.0,33.0,30.10,WNW,289,0.0,0.0,84,0.00,,,0.09,,2013-02-04 04:52:00,
2013-02-03 21:03:00,36.0,32.0,30.10,WNW,289,0.0,0.0,85,0.00,,,0.09,,2013-02-04 05:03:00,
2013-02-03 21:21:00,35.0,31.0,30.10,WNW,289,0.0,0.0,85,0.00,,,0.09,,2013-02-04 05:21:00,
2013-02-03 21:33:00,35.0,31.0,30.11,WNW,289,0.0,0.0,85,0.00,,,0.09,,2013-02-04 05:33:00,
2013-02-03 21:41:00,35.0,31.0,30.11,WNW,289,0.0,0.0,85,0.00,,,0.09,,2013-02-04 05:41:00,
2013-02-03 21:52:00,34.0,30.0,30.11,WNW,289,0.0,0.0,86,0.00,,,0.09,,2013-02-04 05:52:00,
2013-02-03 22:01:00,34.0,30.0,30.11,WNW,289,0.0,0.0,86,0.00,,,0.09,,2013-02-04 06:01:00,
2013-02-03 22:11:00,34.0,30.0,30.11,WNW,289,0.0,0.0,86,0.00,,,0.09,,2013-02-04 06:11:00,
2013-02-03 22:21:00,34.0,31.0,30.11,WNW,290,0.0,0.0,87,0.00,,,0.09,,2013-02-04 06:21:00,
2013-02-03 22:31:00,33.0,30.0,30.10,WNW,290,0.0,0.0,87,0.00,,,0.09,,2013-02-04 06:31:00,
2013-02-03 22:41:00,33.0,30.0,30.10,WNW,290,0.0,0.0,87,0.00,,,0.09,,2013-02-04 06:41:00,
2013-02-03 22:51:00,33.0,30.0,30.10,WNW,290,0.0,0.0,87,0.00,,,0.09,,2013-02-04 06:51:00,
2013-02-03 23:01:00,33.0,30.0,30.10,WNW,290,0.0,0.0,87,0.00,,,0.09,,2013-02-04 07:01:00,
2013-02-03 23:11:00,32.0,29.0,30.11,WNW,290,0.0,0.0,87,0.00,,,0.09,,2013-02-04 07:11:00,
2013-02-03 23:21:00,32.0,29.0,30.11,WNW,290,0.0,0.0,87,0.00,,,0.09,,2013-02-04 07:21:00,
2013-02-03 23:31:00,31.0,28.0,30.11,WNW,290,0.0,0.0,87,0.00,,,0.09,,2013-02-04 07:31:00,
2013-02-03 23:41:00,31.0,28.0,30.11,WNW,290,0.0,0.0,87,0.00,,,0.09,,2013-02-04 07:41:00,
2013-02-03 23:51:00,31.0,28.0,30.11,WNW,290,0.0,0.0,87,0.00,,,0.09,,2013-02-04 07:51:00,